Location: Peebles
(55.6412°N, 3.1714°W)
Time: 02:13:14
(UTC+01:00)

SL-16 DEB - Visible Passes

Search period start: 01 July 2022 00:00
Search period end: 11 July 2022 00:00
Orbit: 814 x 1117 km, 99.1° (Epoch: 30 June)

Date Brightness Start Highest point End Pass type
(mag) Time Alt. Az. Time Alt. Az. Time Alt. Az.
01 Jul ? 00:02:51 10° ESE 00:08:32 31° NE 00:14:01 10° N visible
01 Jul ? 01:44:33 11° SSE 01:51:05 82° WSW 01:57:34 10° NNW visible
01 Jul ? 03:29:59 10° SW 03:34:58 22° W 03:39:50 10° NW visible
02 Jul ? 00:24:09 10° ESE 00:30:16 39° ENE 00:36:05 10° N visible
02 Jul ? 02:06:50 12° S 02:13:04 62° WSW 02:19:28 10° NNW visible
02 Jul ? 23:06:18 10° ENE 23:10:14 17° NE 23:14:01 10° N visible
03 Jul ? 00:45:37 10° SE 00:52:02 50° ENE 00:58:07 10° N visible
03 Jul ? 02:29:07 12° S 02:35:08 47° W 02:41:18 10° NNW visible
03 Jul ? 23:27:09 10° E 23:31:47 21° NE 23:36:15 10° N visible
04 Jul ? 01:07:14 10° SE 01:13:52 65° ENE 01:20:08 10° NNW visible
04 Jul ? 02:51:24 11° SSW 02:57:15 35° W 03:03:02 10° NNW visible
04 Jul ? 23:48:10 10° ESE 23:53:24 26° NE 23:58:23 10° N visible
05 Jul ? 01:29:15 11° SSE 01:35:45 84° ENE 01:42:06 10° NNW visible
05 Jul ? 03:14:01 10° SW 03:19:26 26° W 03:24:39 10° NW visible
06 Jul ? 00:09:21 10° ESE 00:15:04 33° NE 00:20:30 10° N visible
06 Jul ? 01:51:32 12° S 01:57:43 75° WSW 02:04:01 10° NNW visible
06 Jul ? 03:37:11 10° SW 03:41:41 19° W 03:46:04 10° NW visible
06 Jul ? 22:52:03 10° ENE 22:55:09 14° NE 22:58:10 10° N visible
07 Jul ? 00:30:42 10° SE 00:36:48 42° ENE 00:42:33 10° N visible
07 Jul ? 02:13:50 13° S 02:19:43 56° W 02:25:53 10° NNW visible
07 Jul ? 23:12:42 10° E 23:16:40 17° NE 23:20:29 10° N visible
08 Jul ? 00:52:13 10° SE 00:58:36 54° ENE 01:04:35 10° NNW visible
08 Jul ? 02:36:08 12° SSW 02:41:47 42° W 02:47:41 10° NNW visible
08 Jul ? 23:33:35 10° E 23:38:14 22° NE 23:42:42 10° N visible
09 Jul ? 01:13:59 10° SSE 01:20:27 71° ENE 01:26:35 10° NNW visible
09 Jul ? 02:58:26 11° SSW 03:03:55 31° W 03:09:22 10° NNW visible
09 Jul ? 23:54:38 10° ESE 23:59:52 27° NE 00:04:50 10° N visible
10 Jul ? 01:36:17 13° SSE 01:42:21 89° WSW 01:48:31 10° NNW visible
10 Jul ? 03:21:07 10° SW 03:26:07 23° W 03:30:55 10° NW visible
